FW8450 Weather Reports


time (UTC)temp
C
wind
direction
speed
KPH
gust
KPH
rain 1hr
cm
rain 24hr
cm
rain mn
cm
humidity
%
barometer
mb
20260505121553 11 207 0.0 3.2 0.00 0.00 0.00 90 1013.4
20260505120057 11 0 0.0 1.6 0.00 0.00 0.00 90 1013.4
20260505114553 11 0 0.0 1.6 0.00 0.00 0.00 90 1013.3
20260505113059 11 0 0.0 4.8 0.00 0.00 0.00 90 1013.2
20260505111557 11 0 0.0 4.8 0.00 0.00 0.00 90 1013.1
20260505101552 11 0 0.0 0.0 0.00 0.00 0.00 88 1012.8
20260505100054 11 0 0.0 1.6 0.00 0.00 0.00 87 1012.7
20260505094558 11 0 0.0 1.6 0.00 0.00 0.00 86 1012.5
20260505093054 11 0 0.0 1.6 0.00 0.00 0.00 85 1012.4
20260505091559 11 0 0.0 0.0 0.00 0.00 0.00 86 1012.3
20260505090059 11 0 0.0 1.6 0.00 0.00 0.00 85 1012.2
20260505084552 11 0 0.0 1.6 0.00 0.00 0.00 85 1012.1
20260505083056 11 0 0.0 1.6 0.00 0.00 0.00 84 1012.0
20260505081601 12 0 0.0 1.6 0.00 0.00 0.00 83 1011.9
20260505080052 12 0 0.0 1.6 0.00 0.00 0.00 83 1011.8
20260505074607 12 0 0.0 0.0 0.00 0.00 0.00 82 1011.8
20260505073056 12 0 0.0 0.0 0.00 0.00 0.00 80 1011.4
20260505071551 13 0 0.0 1.6 0.00 0.00 0.00 79 1011.3
20260505070054 13 0 0.0 1.6 0.00 0.00 0.00 78 1011.2
20260505064556 13 289 0.0 1.6 0.00 0.00 0.00 76 1010.9
20260505063058 14 0 0.0 1.6 0.00 0.00 0.00 75 1010.9
20260505061628 14 0 0.0 1.6 0.00 0.00 0.00 75 1010.7
20260505060109 15 0 0.0 0.0 0.00 0.00 0.00 74 1010.6
20260505054611 15 0 0.0 0.0 0.00 0.00 0.00 74 1010.3
20260505053102 16 0 0.0 0.0 0.00 0.00 0.00 73 1010.2
20260505051610 16 0 0.0 1.6 0.00 0.00 0.00 71 1010.1
20260505041555 18 45 1.6 4.8 0.00 0.00 0.00 68 1009.6
20260505034600 18 0 0.0 3.2 0.00 0.00 0.00 66 1009.3
20260505033100 19 313 0.0 3.2 0.00 0.00 0.00 64 1009.3
20260505031601 20 304 0.0 1.6 0.00 0.00 0.00 63 1009.3
20260505030057 21 281 0.0 4.8 0.00 0.00 0.00 60 1009.1
20260505024607 21 0 0.0 1.6 0.00 0.00 0.00 60 1009.0
20260505023054 21 286 0.0 1.6 0.00 0.00 0.00 57 1008.9
20260505021609 22 275 0.0 4.8 0.00 0.00 0.00 56 1008.8
20260505020054 22 0 0.0 3.2 0.00 0.00 0.00 56 1008.7
20260505014554 22 302 0.0 6.4 0.00 0.00 0.00 53 1008.7
20260505013056 24 294 1.6 6.4 0.00 0.00 0.00 50 1008.6
20260505011558 24 213 0.0 4.8 0.00 0.00 0.00 52 1008.6
20260505010054 24 293 1.6 9.7 0.00 0.00 0.00 47 1008.7
20260505004559 25 290 1.6 11.3 0.00 0.00 0.00 47 1008.7
20260505003056 25 242 0.0 6.4 0.00 0.00 0.00 50 1008.8
20260505001553 25 284 3.2 11.3 0.00 0.00 0.00 50 1008.8
20260505000057 25 288 3.2 8.0 0.00 0.00 0.00 49 1008.9
20260504234553 25 183 1.6 8.0 0.00 0.00 0.00 49 1009.0
20260504233100 25 240 0.0 8.0 0.00 0.00 0.00 47 1009.1
20260504231554 25 225 1.6 9.7 0.00 0.00 0.00 48 1009.2
20260504230056 25 147 3.2 9.7 0.00 0.00 0.00 46 1009.1
20260504224556 25 261 1.6 9.7 0.00 0.00 0.00 48 1009.3
20260504223102 25 262 3.2 11.3 0.00 0.00 0.00 47 1009.3
20260504221606 25 254 1.6 14.5 0.00 0.00 0.00 48 1009.5
20260504220135 24 221 6.4 12.9 0.00 0.00 0.00 44 1009.7
20260504214554 24 244 3.2 11.3 0.00 0.00 0.00 46 1009.8
20260504213123 24 279 3.2 11.3 0.00 0.00 0.00 47 1009.8
20260504211554 23 0 4.8 12.9 0.00 0.00 0.00 48 1009.9
20260504210100 23 254 1.6 11.3 0.00 0.00 0.00 51 1010.1
20260504204604 23 273 4.8 12.9 0.00 0.00 0.00 51 1010.0
20260504203054 23 309 1.6 11.3 0.00 0.00 0.00 53 1010.2
20260504201553 22 247 3.2 12.9 0.00 0.00 0.00 54 1010.1
20260504194555 22 277 3.2 8.0 0.00 0.00 0.00 55 1010.3
20260504193059 22 175 3.2 8.0 0.00 0.00 0.00 57 1010.4
20260504191552 21 298 3.2 6.4 0.00 0.00 0.00 57 1010.3
20260504190054 21 285 1.6 4.8 0.00 0.00 0.00 56 1010.4
20260504184558 21 0 0.0 6.4 0.00 0.00 0.00 55 1010.4
20260504183056 21 254 3.2 11.3 0.00 0.00 0.00 55 1010.4
20260504181604 21 313 1.6 11.3 0.00 0.00 0.00 56 1010.6
20260504180056 20 243 3.2 6.4 0.00 0.00 0.00 58 1010.4
20260504174553 20 267 0.0 6.4 0.00 0.00 0.00 59 1010.3
20260504173059 20 296 0.0 6.4 0.00 0.00 0.00 60 1010.2
20260504171558 20 0 1.6 8.0 0.00 0.00 0.00 66 1010.4